Regional Weather Roundup
Issued by NWS Upton, NY

Current Version | Previous Version | Graphics & Text | Print | Product List | Glossary Off
Versions: 1 2 3 4 5 6 7 8 9 10 11 12 13 14 15 16 17 18 19 20 21 22 23 24 25 26 27 28 29 30 31 32 33 34 35 36 37 38 39 40 41 42 43 44 45 46 47 48 49

000
ASUS41 KOKX 242005
RWROKX

REGIONAL WEATHER ROUNDUP
NATIONAL WEATHER SERVICE NEW YORK NY
300 PM EST WED DEC 24 2014

NOTE: "FAIR" INDICATES FEW OR NO CLOUDS BELOW 12,000 FEET WITH NO
SIGNIFICANT WEATHER AND/OR OBSTRUCTIONS TO VISIBILITY.

NYZ071-072-176-178-NJZ106-104-242100-
NEW YORK CITY METRO AREA


CITY           SKY/WX    TMP DP  RH WIND       PRES   REMARKS
CENTRAL PARK   LGT RAIN  46  45  96 E6        29.77F FOG
LAGUARDIA APRT LGT RAIN  45  44  97 NE7       29.74F VSB 1
KENNEDY INTL   RAIN      54  52  93 E3        29.75F FOG
NEWARK/LIBERTY LGT RAIN  47  47 100 N9        29.73F FOG
BRNX BOT. GARD   N/A     46  45  93 CALM      29.74F
TETERBORO      RAIN      48  47  96 NE3       29.73F
$$

NYZ177-179-078>081-242100-
LONG ISLAND NEW YORK

CITY           SKY/WX    TMP DP  RH WIND       PRES   REMARKS
FARMINGDALE    RAIN      55  55 100 SE8       29.74F VSB 1/2
ISLIP          RAIN      56  54  93 SE7       29.73F VSB 1
SHIRLEY        HVY RAIN  54  53  97 SE8       29.76F FOG
WESTHAMPTON    HVY RAIN  53  52  96 SE10      29.77F FOG
MONTAUK POINT    N/A     51  50  96 VRB7      29.81F
$$

NYZ052-065-067-242100-
HUDSON VALLEY

CITY           SKY/WX    TMP DP  RH WIND       PRES   REMARKS
WHITE PLAINS   LGT RAIN  47  47 100 E7        29.73F VSB 1
NEWBURGH       DRIZZLE   46  46 100 NE7       29.75F FOG
MONTGOMERY     LGT RAIN  46  45  96 N8        29.73F
POUGHKEEPSIE   LGT RAIN  47  45  93 CALM      29.75F FOG
ALBANY         LGT RAIN  46  43  89 S7        29.73F FOG
$$

NJZ001-105-106-008-010-013-015-019>022-104-242100-
NEW JERSEY

CITY           SKY/WX    TMP DP  RH WIND       PRES   REMARKS
NEWARK/LIBERTY LGT RAIN  47  47 100 N9        29.73F FOG
TETERBORO      RAIN      48  47  96 NE3       29.73F
CALDWELL       LGT RAIN  47  46  97 NE9       29.73F FOG
MORRISTOWN     RAIN      52  50  93 NE6       29.77S FOG
SOMERVILLE     LGT RAIN  49  47  93 NE5       29.70F FOG
SUSSEX         LGT RAIN  47  45  93 NE5       29.72F
ANDOVER        NOT AVBL
TRENTON        CLOUDY    51  49  92 NE7       29.68F FOG
MILLVILLE      LGT RAIN  61  60  97 S8        29.68F
ATLANTIC CITY  LGT RAIN  58  58 100 S12G18    29.71F FOG
WRIGHTSTOWN    CLOUDY    61  61 100 SE7       29.67F
TOMS RIVER     CLOUDY    61  59  94 S8        29.71F
BELMAR         CLOUDY    57  55  94 S7        29.71F
$$

PAZ047>061-062-071-242100-
EASTERN PENNSYLVANIA

CITY           SKY/WX    TMP DP  RH WIND       PRES   REMARKS
PHILADELPHIA   LGT RAIN  53  51  93 CALM      29.68S VSB 1/2
ALLENTOWN      LGT RAIN  51  48  89 E8        29.68F FOG
SCRANTON       CLOUDY    53  49  86 NE6       29.64F
$$

CTZ002-004>006-009-010-012-RIZ004-006-007-MAZ004-011-015-242100-
SOUTHERN NEW ENGLAND
 IN CT

CITY           SKY/WX    TMP DP  RH WIND       PRES   REMARKS
BRADLEY INTL   LGT RAIN  43  41  93 N5        29.81F FOG
HARTFORD       LGT RAIN  43  42  97 VRB3      29.82F FOG
DANBURY        LGT RAIN  46  43  89 NE7       29.78F FOG
WTRBRY/OXFORD  LGT RAIN  45  37  76 E5        29.79F FOG
BRIDGEPORT     HVY RAIN  47  46  97 NE13      29.77F FOG
MERIDEN        LGT RAIN  44  41  89 N6        29.81F FOG
NEW HAVEN      RAIN      49  45  86 N6        29.79F FOG
CHESTER        LGT RAIN  48  48 100 E3        29.80F VSB 1
GROTON         LGT RAIN  49  49 100 E10       29.80F FOG
WILLIMANTIC    LGT RAIN  47  45  93 CALM      29.82F FOG

 IN RI

CITY           SKY/WX    TMP DP  RH WIND       PRES   REMARKS
PROVIDENCE     LGT RAIN  48  48 100 NE3       29.84F VSB 1
BLOCK ISLAND   CLOUDY    46  45  93 E5        29.83F VSB 3/4
WESTERLY       LGT RAIN  50  49  96 E8        29.82F

 IN MA

CITY           SKY/WX    TMP DP  RH WIND       PRES   REMARKS
BOSTON         LGT RAIN  45  45 100 N6        29.86F VSB 1/4
WORCESTER      LGT RAIN  39  39 100 NE8       29.83F VSB 1/4 WCI  33
WESTFIELD      LGT RAIN  42  40  92 N6        29.82F FOG
PROVINCETOWN   CLOUDY    50  48  93 S7        29.87F
NANTUCKET      LGT RAIN  51  50  96 SE10      29.87F VSB 1/2
$$

ANZ330-335-338-340-345-350-353-355-242100-
COASTAL MARINE OBSERVATIONS


STATION/POSITION TIME  SKY/WX   TEMP    WIND        PRES    VSBY  WAVE
                                AIR SEA DIR/SP/G                  HT/PER
                 (UTC)          (F)     (DEG/KT/KT) (MB)    (MI)  (FT/S)
NY HARB ENTRANCE 2000            51 46  230/  8/  8 1007.6          4/ 8
4S FIRE IS       2000               47                N/A           4/ 7
20S FIRE ISLAND  1900            56 50              1008.2          4/ 8
23SW MTP         2000                                 N/A           5/ 8
HUDSON CANYON    2000            60 55  170/ 16/ 19 1008.3          5/ 9
EXECUTION ROCKS  2000            44 42   60/ 14/ 17   N/A
WESTERN LI SOUND 2000            45      60/ 14/ 17   N/A           2/ 4
CENTRAL LI SOUND 1900            44 44   90/ 14/ 16   N/A           1/ 3
EASTERN LI SOUND NOT AVBL
ROBBINS REEF     NOT AVBL
$$


>>>>>>>>>>>>>>>>>>>>>>>>>>>> KEY <<<<<<<<<<<<<<<<<<<<<<<<<<<
>                                                          <
>     SKY/WX - SKY CONDITION/PRESENT WEATHER               <
>     TMP    - TEMPERATURE IN FAHRENHEIT                   <
>     DP     - DEWPOINT IN FAHRENHEIT                      <
>     RH     - RELATIVE HUMIDITY IN PERCENT                <
>     WIND   - DIRECTION AND SPEED IN MPH                  <
>     PRES   - MEAN SEA LEVEL PRESSURE IN INCHES OF HG     <
>     WCI    - WIND CHILL INDEX                            <
>     VSB    - VISIBILITY IN MILES                         <
>     HX     - HEAT INDEX                                  <
>     TC     - TEMPERATURE IN CELSIUS                      <
>     VRB    - VARIABLE WIND DIRECTION                     <
>                                                          <
>>>>>>>>>>>>>>>>>>>>>>>>>>>> KEY <<<<<<<<<<<<<<<<<<<<<<<<<<<





USA.gov is the U.S. government's official web portal to all federal, state and local government web resources and services.